DELTA 1 DEB, 7151

Orbit data source: Space-Track

DELTA 1 DEB, 7151 is space debris in SSO originally from a launch on Tue, 06 Nov 1973 UTC launched from the Air Force Western Test Range (AFWTR). Debris objects in space refer to the collection of defunct objects orbiting the Earth. Examples of debris include non-operational satellites, rocket bodies, and fragments generated from explosions, collisions, or faulty payload assembly.

Loading next visibility...
Identifier
7151, 1973-086DR
Orbit
SSO
Country
Flag of USUS
Related business
Manufacturer
Unknown
Mission
Spacecraft
Bus & Motor
Unknown
Mass
Unknown
Launch date (UTC)
1973-11-06 (53 years ago)
Launch vehicle
Unknown
Launch site
Air Force Western Test Range (AFWTR)
Object type
Payload
Rocket body
Debris
Shape & HBR
Unknown shape, 0.1 m
Radar Cross Section
Small (<0.1 m²)

Expand to show TLE details & history
Last TLE update: 11 hours ago

TLE from 11 hours ago
0 DELTA 1 DEB
1  7151U 73086DR  26133.31403785  .00000081  00000-0  12088-2 0  9994
2  7151 102.7646 263.9419 0159632 155.0597 234.3970 12.17904578330136
Epoch: 2026-05-13T07:32Z
TLE epoch observation values (Epoch: 2026-05-13T07:32:12.870Z)
Latitude
27.27452°
Longitude
-86.86285°
Altitude
1,680.144 km
Speed
7.003 km/s
True Right ascension
17h 09m 03s
True Declination
27° 09' 03"
Sunlit
Object was in partial shadow at epoch
Visualization orbit readout
Latitude
Unknown
Longitude
Unknown
Altitude
Unknown
Speed
Unknown
Apparent Right ascension
Unknown
Apparent Declination
Unknown
Sunlit
N/A
Visualization observer readout
Local Sidereal Time
02:56:13
Azimuth
Unknown
Elevation
Unknown
Doppler factor
Unknown
Orbital elements
Apogee altitude
1,726.676 km
Perigee altitude
1,471.984 km
Semi-major axis
7,977.467 km
Eccentricity
0.01596
Inclination
102.7646°
RAAN
263.9419°
Arg. of periapsis
155.0597°
True anomaly
232.92694°
Mean anomaly
234.397°
Eccentric anomaly
233.66025°
Mean motion
3.04611 °/min
Orbital period
118.18 mins
BSTAR
0.0012088
Loading maneuver chart data...
Computing Atmospheric mass density...
Loading historical data...
Loading historical data...
Loading historical data...
Loading historical data...
Loading historical data...
Loading historical data...
Loading historical data...

Documentation

Showing up to 5 results
|